Skip Page Navigation
NASA JPL Caltech
NASA Logo - Jet Propulsion Laboratory + View the NASA Portal
+ Near-Earth Object (NEO) Program
Search JPL
JPL Home Earth Solar System Stars & Galaxies Technology
JPL Solar System Dynamics
BODIES ORBITS EPHEMERIDES TOOLS PHYSICAL DATA DISCOVERY FAQ SITE MAP
JPL Small-Body Database Browser
Search: [ help ]  
352102 (2007 AG12)
Classification: Apollo [NEO, PHA]          SPK-ID: 2352102
Ephemeris | Orbit Diagram | Orbital Elements | Physical Parameters | Discovery Circumstances | Close-Approach Data ]

[ hide orbit diagram ]
Orbit Diagram
Note: Make sure you have Java enabled on your browser to see the applet. This applet is provided as a 3D orbit visualization tool. The applet was implemented using 2-body methods, and hence should not be used for determining accurate long-term trajectories (over several years or decades) or planetary encounter circumstances. For accurate long-term ephemerides, please instead use our Horizons system.
Orbit Viewer

Additional Notes: the orbits shown in the applet are color coded. The planets are white lines, and the asteroid/comet is a blue line. The bright white line indicates the portion of the orbit that is above the ecliptic plane, and the darker portion is below the ecliptic plane. Likewise for the asteroid/comet orbit, the light blue indicates the portion above the ecliptic plane, and the dark blue the portion below the ecliptic plane.

Orbit Viewer applet originally written and kindly provided by Osamu Ajiki (AstroArts), and further modified by Ron Baalke (JPL).


Orbital Elements at Epoch 2456400.5 (2013-Apr-18.0) TDB
Reference: JPL 15 (heliocentric ecliptic J2000)
 Element Value Uncertainty (1-sigma)   Units 
e .656249454548248 1.1153e-07  
a 2.0896841543013 5.8396e-08 AU
q .7183300678629549 2.304e-07 AU
i 42.01792364822396 5.7481e-05 deg
node 305.5647308294353 1.8383e-05 deg
peri 68.13962930813319 2.8727e-05 deg
M 64.9466220376509 2.0045e-05 deg
tp 2456201.444827107148
(2012-Sep-30.94482711)
5.4954e-05 JED
period 1103.365502210171
3.02
4.625e-05
1.266e-07
d
yr
n .3262744750301487 1.3677e-08 deg/d
Q 3.461038240739645 9.6719e-08 AU
  Orbit Determination Parameters
   # obs. used (total)      60  
   data-arc span      2202 days (6.03 yr)  
   first obs. used      2007-01-13  
   last obs. used      2013-01-23  
   planetary ephem.      DE405  
   SB-pert. ephem.      SB405-CPV-2  
   condition code      0  
   fit RMS      .87418  
   data source      ORB  
   producer      Otto Matic  
   solution date      2013-Apr-29 15:41:56  

Additional Information
 Earth MOID = .047929 AU 
 T_jup = 3.201 
[ show covariance matrix ]

Ephemeris | Orbit Diagram | Orbital Elements | Physical Parameters | Discovery Circumstances | Close-Approach Data ]

Physical Parameter Table
Parameter Symbol Value Units Sigma Reference Notes
absolute magnitude H 19.599 mag .4567 15 autocmod 2.5c

352102 (2007 AG12)          Discovered 2007-Jan-13 by Balam, D. D. at Mauna Kea (568)
Reference: 20130127/Numbers.arcLast Updated: 2013-01-31

[ show close-approach data ]
Ephemeris | Orbit Diagram | Orbital Elements | Physical Parameters | Discovery Circumstances | Close-Approach Data ]
ABOUT SSD CREDITS/AWARDS PRIVACY/COPYRIGHT GLOSSARY LINKS
FirstGov 2013-May-23 13:23 UT
(server date/time)  
NASA Home Page
Site Manager:   Donald K. Yeomans
Webmaster  Alan B. Chamberlin